Theta_e
309 310 309 309 309 308 308 308 308 308 308 309 309 308 308 309 309 309 310 309 309 310 308 301 296 294 294 294 294 293 292 293 291 290 290 290 290 289 289 289 289 288 288 289 289 289 289 289 289 290 290 290 290 290 290 290 290 290 290 290 290 290 290 291 291 292 293 294 295 295 296 297 298 298 299 299 299 298 298 298 296 295 294 294 294 295 295
307 308 308 307 306 306 306 306 306 306 306 307 307 306 306 306 307 307 307 307 307 307 303 297 294 293 293 294 294 293 293 293 291 290 289 290 289 289 289 289 288 288 288 288 288 288 288 288 288 289 289 289 289 289 289 289 289 289 289 289 289 289 290 290 290 290 291 292 293 294 295 296 297 297 298 298 298 298 298 297 297 295 294 293 293 294 294
306 306 306 306 305 304 304 303 303 303 303 303 303 303 303 303 304 305 305 306 306 301 296 294 294 293 293 293 293 293 293 293 291 289 289 289 289 289 289 288 288 288 288 288 288 288 288 288 288 288 288 288 288 288 289 289 289 289 289 288 288 288 288 288 289 289 290 290 291 291 292 294 295 296 296 297 297 297 297 297 297 295 294 293 293 293 293
304 304 304 304 302 301 301 300 300 300 300 301 301 301 302 302 302 302 302 304 303 297 293 294 294 292 292 292 291 292 293 293 291 289 289 289 288 288 288 288 288 288 288 288 288 288 288 288 288 288 287 287 287 287 287 288 288 288 288 288 288 287 287 287 287 288 288 289 289 290 291 291 292 293 294 295 296 296 297 297 296 296 295 293 292 292 292
302 303 302 300 298 299 299 300 300 300 299 299 299 299 300 300 301 301 302 301 298 294 293 294 294 293 293 292 291 291 291 292 291 290 289 289 288 288 288 288 288 288 287 287 287 287 287 287 287 287 287 287 286 286 286 286 286 286 287 287 287 287 287 286 286 286 287 288 288 289 289 290 291 291 292 293 294 295 296 296 296 296 295 294 293 292 292
300 301 299 297 297 299 299 301 301 300 299 299 298 298 300 300 299 299 299 297 294 294 295 295 294 294 293 291 291 290 290 291 292 290 289 289 288 288 288 288 288 288 287 287 287 287 287 287 287 287 287 286 286 286 286 286 286 285 285 285 285 286 286 286 285 285 285 286 287 287 288 289 289 290 291 292 292 293 294 295 296 296 295 294 293 292 291
298 299 298 297 298 298 298 299 298 298 299 300 299 299 299 298 296 295 295 295 294 294 294 293 293 292 292 291 291 290 290 291 292 290 289 289 289 288 288 288 288 288 287 287 287 287 287 287 287 287 286 286 286 286 286 286 285 285 285 285 285 285 285 285 285 285 285 285 285 286 286 287 287 288 289 290 291 292 293 294 295 295 295 294 294 293 292
297 297 297 297 297 296 296 297 296 296 298 299 298 299 298 296 295 295 294 294 294 294 293 292 292 292 291 291 291 290 290 291 291 290 289 289 289 288 288 288 288 288 287 287 287 287 287 287 286 286 286 286 286 286 286 285 285 285 285 285 285 285 285 285 285 285 285 285 285 285 285 285 286 286 287 288 289 291 291 292 293 294 295 294 293 293 292
297 296 296 296 296 294 295 297 297 296 297 298 298 299 297 295 294 294 294 294 295 294 294 293 292 292 291 290 290 290 290 291 291 290 289 289 289 289 288 288 288 287 287 287 287 287 286 286 286 286 286 286 285 285 285 285 285 285 285 285 285 285 285 285 285 285 285 285 285 285 285 285 285 285 285 286 287 288 289 291 292 293 294 295 294 293 292
297 296 295 295 295 294 297 298 296 294 294 295 296 297 297 296 294 292 293 295 295 294 294 293 292 292 291 290 290 290 291 292 290 289 289 289 289 289 289 288 288 288 287 287 287 286 286 286 286 286 285 285 285 285 285 285 285 285 285 285 285 285 285 285 285 285 285 285 285 285 285 285 285 285 284 285 285 286 287 289 290 292 293 294 294 293 292
296 296 296 296 295 296 298 298 294 292 292 294 295 296 296 294 291 290 291 294 294 293 293 293 292 291 291 290 289 289 291 291 290 289 289 289 289 289 289 288 288 288 287 287 287 287 286 286 286 285 285 285 284 284 285 284 284 284 284 284 284 284 284 285 285 285 285 285 284 285 285 285 285 284 284 285 285 285 285 286 288 290 291 293 294 294 293
296 296 296 296 296 297 297 296 293 291 292 293 295 296 294 291 290 290 290 291 292 291 291 291 291 291 291 290 289 289 290 290 290 290 289 289 289 289 289 288 288 287 287 287 286 286 286 286 286 285 285 285 284 284 284 284 284 284 284 284 284 284 284 284 284 285 285 284 284 285 285 284 284 284 284 284 284 284 285 285 286 288 289 291 293 294 294
296 296 296 296 296 297 297 295 292 291 291 292 294 295 292 289 289 290 289 289 290 290 290 290 291 291 291 290 290 290 290 290 290 290 290 289 289 289 288 288 288 287 287 286 286 286 286 286 285 285 284 284 284 284 284 284 284 284 283 283 283 283 284 284 284 284 284 284 285 285 285 285 285 284 284 284 284 284 284 284 285 286 288 289 291 293 294
294 295 296 296 295 295 296 294 291 289 291 294 295 293 290 288 289 289 289 289 290 290 290 290 290 290 290 290 290 290 290 290 290 290 290 289 289 289 288 288 287 287 286 286 286 286 286 285 285 284 284 283 283 283 283 283 283 283 282 282 283 283 283 284 284 284 284 284 284 285 285 285 285 285 284 284 284 284 284 284 284 285 286 288 289 291 293
293 292 294 294 294 293 292 292 290 290 292 295 293 290 288 289 289 288 288 289 289 289 289 289 289 290 290 290 290 290 290 290 290 290 290 289 288 288 288 288 287 286 285 285 285 285 285 285 284 284 283 283 283 283 283 283 283 282 282 282 282 282 283 284 284 284 284 284 284 284 284 284 284 285 285 285 284 284 284 284 284 284 285 286 288 289 291
293 293 293 294 295 292 290 291 292 292 292 292 290 289 289 289 289 289 289 289 289 289 289 289 289 289 289 289 289 289 289 289 289 290 289 288 288 287 287 287 286 285 284 284 284 284 284 284 284 283 282 282 282 282 283 282 282 281 281 281 281 282 283 283 283 283 284 284 284 284 284 284 284 284 285 285 285 284 284 284 284 284 284 285 286 288 290
292 293 293 293 292 290 289 290 291 291 290 290 290 289 289 289 289 289 289 289 289 289 288 288 289 289 289 289 289 289 289 289 289 289 288 288 287 286 286 285 285 284 283 283 283 283 283 283 283 282 282 281 281 282 282 281 280 280 280 280 280 281 282 282 282 282 282 283 283 283 283 284 283 284 284 285 285 284 284 284 284 284 284 285 285 287 289
290 290 290 290 289 289 290 290 290 290 290 290 290 289 289 289 289 289 289 288 288 288 288 288 288 288 288 288 288 289 289 289 289 288 287 287 286 285 285 284 283 282 282 282 282 282 282 282 282 282 281 280 280 280 280 279 278 277 277 277 279 280 281 281 281 280 280 281 282 283 283 283 282 282 283 283 284 284 284 283 283 283 284 284 285 286 287
290 289 290 290 289 290 290 290 290 290 290 290 290 289 289 289 289 289 288 288 288 288 288 288 287 288 288 288 288 288 288 287 287 286 285 285 284 284 283 282 282 281 281 281 281 281 281 282 282 281 280 279 278 277 276 275 274 274 274 274 275 277 279 279 279 279 278 278 279 280 281 281 281 281 281 281 281 282 283 283 283 283 283 283 284 284 286
289 289 290 290 290 290 290 290 290 290 290 290 290 289 289 289 289 288 288 287 287 287 287 287 287 287 287 286 286 286 286 285 285 284 284 283 283 282 282 281 281 280 280 279 279 278 279 281 280 279 278 277 276 274 273 272 271 271 272 272 272 273 275 276 276 276 276 275 276 276 277 278 278 279 280 279 279 280 281 282 282 282 282 282 283 284 285
289 289 289 289 289 289 289 290 290 290 290 290 289 289 289 288 288 288 287 287 287 286 286 286 286 286 286 285 284 283 284 284 283 283 282 281 281 281 281 280 280 279 278 277 276 275 276 277 276 276 276 275 273 271 270 269 269 269 270 271 270 271 272 272 273 273 273 273 273 273 273 274 276 277 278 277 277 279 280 281 281 281 281 281 282 283 283
289 289 289 289 289 289 289 289 290 289 289 289 289 289 288 288 287 287 287 287 286 285 285 285 284 284 284 283 282 281 282 282 282 281 281 280 280 281 280 279 278 277 276 274 273 272 273 273 272 272 273 272 271 269 267 267 267 267 267 268 268 269 270 269 269 270 269 270 270 270 270 271 272 274 276 276 276 277 279 280 280 279 280 281 282 282 282
289 289 290 290 289 289 289 289 289 289 289 289 288 288 287 287 287 287 286 286 286 285 284 283 282 282 282 281 280 280 281 281 281 280 280 279 279 278 278 276 276 275 274 273 271 271 271 270 270 270 270 269 268 267 265 265 265 265 265 265 266 267 266 266 266 266 266 266 267 267 267 268 269 270 273 275 276 276 277 279 279 279 279 280 281 281 282
290 290 290 290 289 289 289 289 289 289 288 288 287 287 287 286 286 285 285 285 284 284 284 282 281 281 280 280 279 280 280 281 280 280 279 278 276 275 274 273 273 272 272 271 270 268 268 267 267 267 266 266 265 264 264 264 263 263 263 263 263 264 264 263 263 263 263 263 263 264 265 266 267 268 270 272 274 275 276 277 278 278 279 280 280 281 282
289 290 290 290 289 289 289 289 288 288 288 287 287 286 286 285 284 284 284 283 283 283 283 282 281 280 280 280 279 279 280 280 280 278 278 278 276 274 273 272 271 269 268 267 266 265 264 264 264 263 263 263 263 262 262 262 262 262 262 262 262 262 262 262 262 262 262 262 262 263 264 265 267 268 270 271 272 273 274 276 277 277 278 279 280 281 282
289 289 289 289 289 289 288 287 287 287 287 286 286 285 284 284 283 283 283 282 281 281 281 280 280 279 279 279 279 279 279 279 279 277 276 276 275 273 271 270 268 266 265 264 263 263 262 262 262 262 261 261 262 261 261 262 262 262 262 262 262 262 262 262 262 262 262 262 263 263 264 266 267 267 268 269 269 270 272 273 274 275 276 277 279 280 281
289 289 289 288 288 288 287 287 287 286 285 285 284 283 283 283 283 282 282 281 280 280 280 279 279 279 279 278 278 278 277 277 277 276 275 274 273 271 269 267 265 264 263 263 262 262 262 261 261 261 261 261 261 261 261 261 261 261 262 262 262 262 261 261 262 262 262 262 262 263 263 264 265 265 266 266 267 268 269 271 272 274 275 276 277 279 280
289 289 288 287 287 288 287 286 285 284 284 283 283 283 283 282 282 281 280 280 280 280 279 279 279 279 279 278 277 277 277 276 275 274 273 273 271 269 267 265 264 264 263 263 262 262 262 261 261 261 261 261 261 261 261 261 261 261 261 261 261 261 261 261 261 261 261 261 262 262 262 262 263 264 265 266 268 269 270 271 273 275 276 277 277 278 279
288 288 287 287 287 286 285 284 283 282 282 282 282 281 281 281 281 280 280 280 280 279 279 279 279 278 277 277 276 276 276 274 273 272 272 271 270 268 266 265 265 264 263 263 263 263 262 262 262 261 261 262 261 261 261 261 261 261 261 261 261 261 261 261 261 261 261 261 261 262 262 263 264 264 265 267 268 269 270 272 273 275 277 277 278 279 279
286 286 285 285 284 284 283 282 282 281 281 281 281 280 280 280 280 280 279 279 280 279 279 279 278 277 276 276 275 274 273 273 272 271 270 269 268 267 266 265 265 264 263 263 263 264 264 263 262 262 262 262 261 261 261 261 261 261 261 261 261 261 261 261 261 261 261 262 262 263 263 264 264 265 265 266 267 268 270 271 272 274 276 277 278 279 279
284 283 283 282 282 282 281 281 280 280 280 280 279 279 279 279 279 279 279 279 279 279 278 277 277 276 276 275 274 273 272 271 271 270 269 268 267 266 266 266 265 264 264 264 265 265 264 263 263 263 263 262 262 262 262 261 261 261 261 261 262 262 262 262 262 262 262 262 262 263 263 264 264 265 265 266 267 268 269 270 272 273 275 276 278 278 279
281 281 280 280 280 279 279 279 279 279 279 279 278 278 278 278 278 278 278 278 277 277 277 276 276 275 274 273 273 272 271 270 270 270 268 267 266 265 266 266 266 265 265 266 266 265 264 263 263 263 263 262 262 262 262 262 262 262 262 262 262 262 263 263 262 262 262 262 263 263 263 264 264 265 266 267 268 269 270 271 273 274 275 276 277 278 278
280 279 279 279 279 279 278 279 279 278 278 278 278 278 278 277 277 277 276 276 276 276 276 276 275 274 273 272 271 270 270 270 270 269 267 266 265 266 267 268 267 267 266 267 267 265 264 263 263 263 263 263 263 263 263 262 262 262 262 263 263 263 263 264 264 263 263 263 264 264 264 265 265 266 266 267 268 269 271 272 273 275 276 276 277 278 278
279 278 278 279 278 278 278 278 278 278 278 277 277 277 277 276 276 275 275 275 275 275 274 274 273 272 271 271 270 269 269 268 267 267 266 266 266 267 268 268 268 267 267 267 267 265 264 264 263 263 263 263 263 263 263 263 263 263 263 263 264 264 264 265 265 265 265 265 265 265 265 265 265 266 266 267 268 269 270 271 272 274 275 276 277 277 278
277 277 277 277 277 277 277 277 277 277 277 277 276 276 275 275 275 275 274 274 274 273 272 271 271 270 270 270 269 268 268 267 266 265 265 266 267 268 269 269 268 268 268 268 267 266 266 265 264 263 263 263 264 264 263 263 263 263 264 264 264 265 265 266 266 266 266 266 266 266 266 266 266 267 267 268 269 270 271 272 272 273 274 276 276 277 277
276 276 276 275 275 275 275 275 275 275 275 275 274 274 274 274 274 273 273 273 272 272 271 270 270 270 269 268 268 267 267 266 265 265 266 267 268 269 269 269 268 268 269 269 268 267 266 266 265 264 263 263 264 264 264 264 264 264 264 265 265 265 266 266 267 267 267 267 267 267 267 267 267 267 268 269 270 271 272 272 273 273 274 275 276 276 277
274 274 274 274 274 274 274 274 274 274 274 273 273 273 273 273 273 273 272 272 271 270 269 269 269 269 268 267 267 267 267 266 265 265 266 267 269 270 270 269 268 268 268 269 269 268 267 266 266 265 264 264 264 264 265 264 264 264 265 265 266 266 266 267 267 268 268 268 268 268 268 268 268 268 269 270 271 272 272 273 273 274 275 275 276 276 276
273 273 273 273 273 273 273 273 273 273 273 273 273 273 272 272 272 272 271 271 270 269 268 268 268 267 266 266 267 267 267 266 266 266 267 268 269 270 269 269 268 268 267 267 268 268 267 267 266 266 265 264 264 265 265 265 265 265 265 266 266 266 267 267 268 268 268 269 269 269 269 270 270 270 271 271 272 273 273 273 274 274 275 275 275 276 276
273 272 272 272 272 272 273 273 272 272 272 272 272 272 271 271 270 270 270 269 268 267 267 267 266 266 265 265 266 267 267 267 266 267 268 269 269 269 269 268 267 267 267 267 268 268 268 267 267 266 266 265 265 265 266 265 265 265 266 266 266 267 267 267 268 268 269 269 270 270 271 271 271 271 272 272 273 273 273 274 274 274 275 275 275 275 276
273 272 272 272 272 272 272 272 272 271 271 271 271 270 270 269 269 268 268 268 267 266 265 265 265 265 265 265 266 267 267 267 267 267 268 269 269 269 270 269 268 267 268 268 268 268 268 268 267 267 266 266 265 266 266 266 266 266 267 267 267 267 267 268 268 269 269 270 270 271 271 271 272 272 272 273 273 273 274 274 274 274 275 275 275 275 276
272 272 272 272 272 272 271 271 271 270 270 269 269 269 268 268 267 267 266 266 265 265 264 264 263 264 264 265 265 266 267 267 268 268 268 268 268 269 269 269 269 268 268 268 268 268 268 268 268 267 267 267 266 266 266 266 266 267 267 267 267 267 267 268 268 269 269 270 270 271 271 271 272 272 272 273 273 273 274 274 274 274 274 275 275 275 276
271 271 271 271 271 270 270 269 269 269 269 268 268 267 267 266 265 265 264 264 264 264 263 263 263 264 264 264 265 266 267 268 269 269 268 267 267 268 268 269 268 268 268 268 268 268 268 268 268 268 267 267 267 267 267 267 267 267 267 267 267 267 268 268 268 269 269 270 270 270 271 271 271 272 272 272 273 273 273 273 274 274 274 274 275 275 275
270 270 270 270 269 269 269 268 268 269 269 268 267 266 265 264 263 263 263 263 263 263 263 263 263 264 264 264 266 267 267 268 269 269 269 268 268 267 268 268 268 268 268 268 268 268 268 268 268 268 268 268 268 268 268 269 269 268 268 268 268 268 268 268 268 268 269 269 270 270 270 271 271 271 272 272 272 273 273 273 273 274 274 274 275 275 275
269 269 268 268 268 268 268 268 268 267 267 266 265 264 263 263 262 262 262 262 262 262 262 263 263 264 264 265 266 266 267 268 269 269 269 269 269 268 268 268 268 268 268 268 268 268 268 268 268 268 268 268 269 269 269 269 269 269 269 269 269 269 268 268 268 268 268 268 269 269 270 270 271 271 271 272 272 272 272 273 273 273 274 274 274 274 275
268 268 267 268 268 268 267 267 266 265 264 263 263 262 262 262 261 261 261 261 261 262 262 263 263 264 264 265 266 266 267 268 268 267 268 269 269 269 268 268 267 267 267 267 267 267 268 267 267 268 268 269 269 269 270 269 269 270 270 270 270 270 269 269 269 268 268 268 268 269 269 269 270 270 271 271 271 272 272 272 273 273 273 273 274 274 274
268 268 268 268 268 267 266 265 263 262 262 261 261 261 261 261 261 261 261 261 261 262 262 263 263 264 264 265 266 267 267 267 267 267 267 267 267 267 267 267 267 267 267 267 267 267 267 267 268 268 268 268 269 269 270 270 270 270 270 270 270 270 270 270 270 269 269 269 269 269 269 269 269 270 270 270 271 271 271 272 272 272 273 273 273 274 274
268 268 267 267 266 265 264 262 261 261 261 260 260 261 261 261 261 261 261 261 261 262 262 263 264 264 264 265 266 268 268 267 267 267 267 266 266 267 267 266 267 267 266 266 266 266 267 267 267 268 268 268 268 269 269 269 270 270 270 270 270 270 270 270 270 270 270 270 269 269 269 269 269 269 270 270 270 271 271 271 272 272 273 273 273 273 273
267 267 266 266 264 263 262 261 261 260 260 260 260 260 260 260 260 261 261 261 262 262 263 264 264 264 265 266 266 267 268 268 267 267 267 267 267 267 266 266 266 266 266 266 266 266 266 267 267 267 267 268 268 268 268 269 269 269 269 269 270 270 270 270 270 270 270 270 270 270 270 270 270 270 270 270 270 270 271 271 272 272 272 272 272 272 272
266 266 265 264 263 262 261 261 260 260 260 260 260 260 260 260 260 261 261 262 262 263 263 264 264 265 265 266 267 267 267 267 267 267 267 267 267 266 266 266 266 266 266 266 266 266 266 266 266 267 267 267 267 267 268 268 268 268 268 268 269 269 269 269 269 269 270 270 270 270 270 270 270 270 270 270 270 270 271 271 271 271 271 271 271 271 271
265 265 264 263 263 262 261 260 260 260 260 260 260 260 260 260 260 261 261 262 263 263 264 265 265 265 266 266 267 267 267 266 266 266 266 266 266 266 266 266 266 266 266 266 266 266 266 266 266 266 267 267 267 267 267 267 267 268 268 268 268 268 268 269 269 269 269 269 269 269 270 270 269 269 270 270 270 270 270 270 270 270 271 271 271 271 271
265 264 264 264 263 262 261 260 260 260 259 260 260 260 260 260 261 261 262 262 263 264 264 265 265 266 266 266 266 266 266 266 266 266 266 266 266 266 266 266 266 266 266 266 266 266 266 266 266 266 266 266 266 266 266 267 267 267 267 267 267 267 268 268 268 268 268 269 269 269 269 269 269 269 269 269 269 270 270 270 270 270 270 270 270 270 270
264 264 264 264 263 262 262 261 260 260 260 260 260 260 261 261 261 262 262 263 263 264 265 266 266 266 266 266 266 266 266 266 266 266 266 266 266 266 266 266 266 266 266 266 266 266 266 266 266 266 266 266 266 266 266 266 266 266 266 266 267 267 267 267 267 267 267 268 268 268 268 268 268 268 268 268 269 269 269 269 269 269 269 269 269 269 269
Wind_Speed
13 13 14 13 11 10 10 10 12 11 11 12 14 15 13 10 9 10 10 13 15 13 6 2 2 1 1 1 1 2 4 7 10 13 16 18 20 21 22 22 23 23 24 24 26 27 28 30 31 32 33 35 36 37 38 39 39 40 41 40 40 39 38 38 37 36 34 34 34 34 34 35 35 35 35 35 35 34 33 32 32 34 37 41 43 45 47
11 11 12 10 8 8 8 9 9 9 11 14 15 14 14 14 14 15 15 18 19 11 4 6 5 3 2 1 2 4 5 5 8 12 15 17 18 18 19 20 20 21 22 23 23 25 26 27 28 29 30 31 33 34 35 37 38 39 40 41 41 40 39 39 38 38 37 35 34 33 32 33 34 34 34 35 35 35 34 33 33 32 34 38 42 44 46
8 8 9 8 6 6 9 9 9 11 14 15 15 15 15 15 16 16 17 19 16 4 5 5 5 4 2 2 4 7 7 5 6 10 14 16 17 18 19 20 20 21 22 23 24 25 26 26 26 27 27 28 29 30 31 33 34 36 38 40 41 41 40 39 39 38 39 38 37 35 33 32 32 32 33 34 35 35 34 33 32 31 31 34 39 43 45
7 7 9 8 5 6 10 11 14 18 18 16 14 14 13 14 16 17 16 14 8 2 4 2 4 4 3 4 6 7 7 6 5 8 14 17 17 18 19 20 20 21 22 23 24 25 26 27 27 27 27 28 28 28 29 31 32 34 35 37 38 40 41 41 40 40 40 40 39 38 37 36 34 33 33 33 34 34 35 34 31 30 30 32 35 39 43
5 5 5 3 3 6 10 10 14 17 17 16 16 15 15 15 13 12 11 6 2 3 3 1 2 4 5 6 7 7 8 9 6 7 13 16 16 17 19 20 20 21 22 23 23 25 25 26 27 27 27 28 28 28 28 29 31 32 34 35 36 38 39 41 41 41 41 41 41 40 40 39 38 36 35 34 34 34 34 34 32 31 30 30 32 35 40
5 5 2 3 4 9 8 5 6 9 12 15 16 13 10 7 3 2 2 2 3 3 3 3 3 4 5 6 7 8 9 10 9 8 13 15 16 18 19 20 21 21 22 23 24 25 26 26 27 27 27 28 29 29 29 29 30 30 32 33 35 36 37 39 40 42 42 42 42 42 42 41 40 39 38 37 36 34 34 33 33 32 30 30 30 32 36
4 3 3 7 11 8 3 2 1 3 4 5 6 5 3 2 4 5 5 5 5 5 6 7 8 9 9 9 9 10 11 12 12 10 13 15 16 19 20 21 22 22 23 25 25 26 27 27 28 29 29 29 30 31 31 32 32 32 32 33 34 35 36 37 38 40 42 43 43 43 43 43 43 42 40 39 38 37 36 35 34 33 31 30 30 30 32
2 2 4 10 9 4 4 5 2 1 0 3 1 3 3 5 6 6 5 4 4 5 8 10 11 12 11 11 14 16 14 15 15 11 13 15 17 20 21 22 23 23 24 26 27 28 29 29 30 31 31 31 32 33 33 34 34 35 35 36 36 36 37 37 38 39 41 43 44 44 44 44 45 45 44 42 40 39 39 37 35 34 33 31 29 29 29
3 4 7 7 7 7 9 8 3 2 3 4 3 2 3 5 6 4 4 3 4 5 9 12 12 9 7 8 14 17 13 16 17 13 14 16 18 21 23 24 25 25 25 27 28 29 31 32 33 33 33 34 35 36 36 36 37 37 38 38 39 39 40 40 40 40 41 43 44 45 45 45 46 46 47 46 43 41 41 40 38 36 35 32 30 28 28
3 3 5 5 6 7 6 5 5 3 3 3 2 0 1 4 6 4 3 4 6 5 8 12 9 4 3 4 10 15 11 17 16 15 17 18 20 24 26 27 28 28 28 29 30 31 33 35 35 35 35 37 38 39 39 39 39 40 40 40 40 41 41 42 42 42 42 43 44 45 46 46 47 47 47 47 46 44 43 42 41 39 37 35 32 29 28
4 4 5 5 7 6 2 4 4 2 3 3 2 1 2 3 6 8 7 6 8 7 10 12 7 2 2 4 11 18 14 16 17 20 21 21 22 25 28 28 29 30 30 31 32 34 35 37 38 38 39 40 41 43 43 43 43 43 43 43 43 43 43 42 42 43 44 44 45 46 47 47 48 48 48 48 48 47 45 44 43 41 39 38 36 32 29
7 7 6 5 5 3 3 6 4 3 5 4 3 4 3 5 10 13 11 12 12 13 15 12 5 5 7 9 15 24 19 16 20 24 25 25 25 27 30 30 31 32 32 33 34 36 37 39 39 40 41 43 44 46 47 47 47 47 46 46 47 47 46 44 44 43 44 45 46 47 48 49 49 49 49 50 50 49 48 47 45 44 41 39 38 35 31
9 10 6 4 4 3 4 6 8 9 7 4 1 5 3 10 15 14 12 16 17 16 16 12 9 13 19 20 24 27 24 23 26 28 29 28 28 29 32 33 34 34 35 36 37 38 40 41 41 41 42 44 46 47 48 49 50 50 48 48 49 50 50 49 48 47 46 46 47 48 49 50 51 51 50 50 51 51 51 50 48 46 44 42 40 38 35
4 5 4 4 4 3 5 7 8 8 4 1 5 4 3 7 13 12 12 17 16 15 17 17 17 22 25 26 28 28 27 29 31 31 32 32 31 32 34 35 36 37 37 38 39 41 43 43 43 43 44 46 47 48 49 51 51 50 50 51 52 53 53 53 53 52 50 49 49 49 50 51 52 53 52 51 52 53 53 52 50 48 46 44 42 41 38
1 2 4 5 5 3 8 8 4 4 5 3 5 7 11 13 13 12 12 14 15 16 18 19 21 24 25 26 28 29 29 31 32 33 34 34 33 34 36 38 39 39 39 40 42 45 46 46 46 45 46 48 49 50 52 52 52 52 53 54 55 56 57 57 56 56 55 54 52 51 51 52 54 55 55 54 54 54 54 54 53 50 48 46 44 44 41
3 3 4 4 3 3 7 7 2 5 9 14 18 17 16 19 21 18 15 15 17 18 19 20 22 24 25 27 28 29 30 31 32 34 35 35 35 36 37 40 41 41 41 43 45 47 48 48 48 48 48 50 52 53 54 54 53 54 55 56 58 59 60 60 59 59 59 58 57 55 54 53 54 55 56 56 56 55 55 55 54 53 50 47 46 45 44
3 4 7 7 5 7 9 10 13 19 25 29 28 21 18 21 24 21 18 19 21 20 20 22 23 24 26 27 28 30 31 32 33 34 35 36 37 38 39 41 42 42 43 45 47 49 50 50 50 50 51 52 53 56 56 55 55 56 57 58 60 62 62 63 62 61 61 61 60 59 58 56 55 55 56 57 58 57 56 55 55 54 52 49 46 45 44
4 8 16 15 11 16 22 23 25 28 29 30 28 22 21 24 26 24 22 22 22 21 20 21 23 25 26 27 28 29 30 32 34 35 36 38 39 40 42 43 43 44 45 47 49 51 52 53 52 53 53 53 54 57 57 55 55 56 57 59 62 64 64 65 65 64 64 64 64 63 62 60 58 57 55 55 57 57 56 55 54 54 52 49 47 46 45
7 9 14 13 11 18 23 24 27 30 30 31 29 26 26 28 28 25 22 20 20 20 20 21 23 25 25 25 26 28 29 32 35 36 38 40 41 42 44 45 45 46 47 49 51 53 55 56 56 57 57 55 55 55 54 53 54 55 57 59 62 65 67 67 67 67 67 66 66 65 63 62 60 58 55 53 53 54 55 55 54 53 51 49 47 46 45
9 11 16 17 17 22 24 25 29 32 33 34 31 29 28 27 24 21 20 19 19 20 20 20 21 23 23 23 24 27 30 33 36 37 39 41 42 44 45 46 46 47 49 50 52 53 56 59 59 59 59 58 56 54 52 51 52 55 58 60 61 64 67 68 68 68 67 66 65 64 63 62 60 59 57 54 51 51 53 52 51 50 49 48 47 46 45
9 12 16 17 15 17 22 28 31 31 31 31 28 25 24 22 20 21 20 20 20 19 19 19 20 22 24 24 23 27 31 34 37 38 39 41 43 45 46 47 48 49 50 51 51 53 56 59 59 60 61 61 58 53 51 51 52 55 60 62 63 65 67 66 66 65 64 63 62 60 60 60 59 58 57 52 49 50 53 52 51 50 49 48 49 47 44
9 10 12 12 9 9 16 25 28 26 25 25 24 23 22 20 21 22 22 22 21 19 19 19 19 22 25 25 25 28 32 35 37 38 40 42 44 46 48 49 50 52 52 51 51 53 57 59 59 61 63 63 60 56 53 53 53 55 58 61 62 63 62 60 60 59 58 58 58 56 55 55 55 56 56 53 48 48 51 52 50 47 46 47 48 45 42
12 16 20 19 12 10 19 28 29 26 24 24 23 23 22 21 22 23 23 25 24 22 21 20 19 22 25 25 26 30 34 36 38 39 41 43 45 47 49 50 52 54 55 55 55 56 59 60 60 62 63 63 61 58 54 52 51 51 52 53 55 57 56 53 53 53 53 53 53 52 52 51 49 50 52 52 50 46 46 49 49 45 43 44 45 40 37
17 27 34 29 19 19 27 31 29 26 25 24 23 22 22 22 22 22 22 22 23 24 24 22 22 23 26 27 28 31 35 38 39 41 43 45 46 47 48 50 51 54 56 56 56 56 57 58 58 59 59 58 56 53 51 48 46 46 45 46 48 51 51 49 49 48 48 49 49 48 49 48 44 40 39 39 40 38 34 33 35 35 35 37 39 37 35
27 35 39 35 29 29 29 27 26 26 26 25 24 23 23 22 20 20 20 20 20 22 24 25 24 24 26 28 30 32 36 40 41 42 45 48 48 48 49 49 50 50 50 51 52 52 53 54 54 54 55 54 52 50 48 46 44 44 44 44 46 48 48 48 48 47 45 44 42 42 41 39 34 32 30 31 34 35 33 31 30 30 32 33 34 35 34
35 38 39 35 33 32 27 23 23 25 25 24 22 20 19 19 18 19 20 20 20 21 23 25 25 25 27 30 32 34 37 41 43 44 46 48 49 49 47 46 45 44 45 47 49 50 50 51 52 53 53 53 51 49 48 47 45 45 45 45 46 47 47 47 46 44 40 37 36 35 35 33 32 34 37 39 41 43 44 44 41 38 35 34 32 31 32
32 34 32 26 25 27 25 21 21 22 21 20 18 18 18 19 20 20 20 19 20 21 22 24 26 27 29 31 33 36 39 41 44 46 46 47 47 45 43 42 42 42 44 46 47 48 49 50 51 52 53 53 51 50 49 47 46 46 45 45 46 47 46 45 44 43 41 40 39 39 41 42 42 44 45 45 45 45 43 42 39 35 32 31 30 28 28
28 29 26 20 20 23 22 20 19 19 18 17 17 18 19 20 20 20 20 20 21 22 23 25 27 30 32 34 36 39 41 42 44 45 45 45 43 41 40 41 42 43 44 46 46 47 48 49 50 52 52 51 50 48 47 45 45 45 44 44 45 46 45 45 45 45 45 45 44 45 45 45 45 43 40 36 35 35 33 32 33 33 32 31 29 27 24
25 25 24 23 25 25 22 20 19 18 16 17 18 18 18 19 20 20 20 21 22 24 25 27 29 31 33 35 37 39 42 43 44 44 43 41 39 39 40 42 43 43 44 44 44 45 46 47 48 49 49 47 45 43 42 41 41 42 41 42 42 43 43 42 42 43 43 42 41 40 39 38 36 35 33 31 31 33 33 33 31 31 32 32 30 29 26
22 22 22 22 22 21 20 19 18 16 15 16 16 16 17 19 21 22 22 22 24 26 28 30 31 32 34 36 38 39 41 42 43 41 39 38 37 38 40 43 44 45 44 43 43 44 45 45 45 45 45 43 41 39 39 39 39 39 39 39 39 40 40 39 38 37 37 36 35 33 32 32 33 33 35 37 37 37 38 38 34 31 31 31 30 30 29
19 19 19 18 17 17 17 16 15 15 15 15 16 16 16 18 20 22 23 24 26 29 30 32 33 34 35 36 38 38 39 40 39 38 36 36 37 38 40 41 43 44 44 44 44 44 44 43 44 43 42 41 39 38 38 38 39 39 38 38 38 37 37 36 35 34 34 33 31 30 30 32 33 33 35 36 34 31 31 34 34 33 31 30 29 30 30
17 15 15 15 15 15 15 14 14 14 14 15 16 16 16 18 21 23 25 27 28 30 32 33 34 35 36 36 37 37 38 37 36 34 35 36 36 37 38 40 41 41 42 43 43 44 43 44 44 43 42 40 38 37 36 37 38 38 37 36 36 36 35 34 33 33 32 30 29 29 29 30 30 29 29 30 29 28 27 27 29 30 31 31 31 31 30
14 13 13 14 14 14 14 14 14 14 14 15 16 17 18 20 22 24 26 28 30 31 33 34 35 35 35 36 36 36 35 34 33 33 34 36 36 37 38 40 41 40 40 42 43 43 43 44 44 43 41 38 37 36 35 35 35 35 35 35 35 34 34 32 32 32 32 31 30 29 29 30 30 29 30 31 31 30 28 26 26 28 29 30 30 30 28
14 14 13 13 13 13 14 13 13 14 15 16 17 18 20 22 23 24 26 28 30 31 32 33 34 34 34 34 35 34 32 31 32 33 34 35 36 38 39 40 40 40 41 42 43 43 43 43 42 41 39 37 36 35 33 33 33 33 33 33 33 33 33 32 31 31 31 31 30 29 29 29 29 29 29 28 27 27 27 27 27 27 27 28 28 28 27
13 13 13 12 12 13 14 14 14 15 17 19 20 21 22 22 24 25 27 28 30 31 31 32 32 32 32 33 32 30 28 28 30 32 33 34 35 37 39 39 40 42 44 44 44 43 42 40 38 38 37 36 35 33 32 32 32 31 31 31 32 32 32 31 31 31 30 30 30 29 28 28 27 25 24 23 24 24 25 25 25 25 25 27 27 26 24
12 11 12 12 12 13 14 15 16 18 20 22 23 23 23 24 25 26 28 29 30 30 30 30 30 30 31 30 29 27 26 26 28 30 31 31 33 35 37 38 40 44 46 47 46 44 42 39 36 35 35 35 33 32 31 30 30 30 30 30 30 30 30 30 30 29 28 28 29 28 27 26 25 23 22 22 23 24 25 25 24 22 23 24 24 23 21
12 12 12 12 13 14 15 16 17 19 21 22 23 24 25 26 26 27 28 29 28 28 27 27 28 29 29 27 25 24 23 24 25 26 27 28 30 32 34 36 39 43 46 48 47 45 43 40 38 35 34 34 33 32 31 29 29 29 29 29 28 28 28 28 28 27 26 26 26 26 26 25 24 23 22 21 20 20 21 22 22 20 20 21 20 18 18
11 11 12 13 14 16 16 17 18 20 21 22 23 24 24 26 27 27 28 27 26 25 25 25 26 26 26 25 23 22 21 20 22 23 24 25 26 29 31 34 38 41 43 45 45 45 43 42 40 37 36 35 34 33 31 30 29 28 27 27 27 26 26 26 26 25 25 24 23 23 22 21 21 21 20 19 19 18 17 17 17 17 17 16 15 14 14
12 13 14 15 16 17 18 18 19 20 21 23 24 24 24 25 26 27 27 26 24 23 23 24 24 24 23 22 21 20 18 17 19 21 22 22 23 26 29 31 35 38 39 40 42 42 42 41 40 39 37 35 34 33 32 31 29 26 25 25 25 25 24 24 24 23 22 21 19 18 18 17 16 16 15 14 13 13 12 12 12 12 12 11 11 11 12
12 14 15 16 16 18 19 20 20 20 21 22 24 25 25 25 25 26 26 24 23 21 21 21 22 21 21 20 19 17 16 15 16 19 19 20 22 25 27 29 32 34 35 37 39 40 40 40 40 40 38 36 34 32 31 29 27 25 24 24 24 23 23 22 21 21 20 19 17 16 14 13 12 11 10 8 7 7 7 7 7 7 7 8 8 9 10
12 14 15 16 17 19 20 21 22 22 22 22 23 24 24 24 24 25 24 23 22 20 19 18 19 19 19 18 16 15 13 13 15 16 18 20 23 26 28 29 30 31 32 34 36 38 38 39 39 39 38 36 33 30 29 28 27 25 25 24 24 23 22 22 21 20 20 19 17 15 13 12 10 8 6 5 4 3 2 3 3 4 5 5 6 7 9
12 14 15 16 18 19 20 21 23 24 24 23 23 23 22 21 21 22 22 21 21 20 18 17 17 17 16 14 12 11 11 12 13 14 16 19 23 26 28 29 29 30 31 32 34 35 37 37 38 38 38 36 33 30 28 27 27 26 26 25 24 24 23 22 22 21 20 19 18 16 15 13 11 9 8 7 5 4 2 1 1 2 3 4 5 6 8
12 14 15 17 18 19 21 22 24 25 25 24 22 21 21 20 19 20 20 20 19 18 17 17 15 13 11 10 9 9 9 10 11 12 14 16 19 23 25 27 28 29 30 31 32 33 34 35 36 37 36 35 33 31 29 29 29 28 27 27 26 26 25 25 24 23 21 20 20 19 17 15 14 12 10 9 8 6 5 3 2 1 2 3 4 6 7
12 14 15 17 19 20 21 23 24 24 25 23 21 20 19 18 18 18 18 18 17 16 16 15 13 10 8 8 7 7 8 10 11 13 15 15 17 19 22 24 26 27 28 29 30 31 32 33 34 34 34 33 33 33 32 32 31 30 30 29 29 28 28 27 26 25 24 23 22 20 19 18 16 15 13 11 10 8 7 5 4 3 3 3 4 5 6
12 13 15 18 19 20 21 22 22 22 22 22 20 19 18 17 17 16 15 15 16 15 13 12 10 8 7 6 4 6 7 8 10 14 17 17 18 20 22 23 24 25 26 27 27 28 29 30 30 31 31 31 31 32 33 34 33 33 32 31 31 30 30 29 29 28 27 25 23 22 20 19 18 17 15 14 13 11 10 9 8 7 7 7 7 7 8
12 13 15 18 19 19 19 20 20 20 20 20 20 19 17 15 15 15 13 13 14 12 11 9 8 7 6 4 3 6 6 5 8 12 15 17 19 20 21 22 22 23 23 24 25 26 27 27 28 28 28 28 29 30 32 33 34 34 34 33 33 32 31 30 30 29 28 27 26 24 23 21 20 19 18 17 16 15 14 13 12 11 11 11 12 12 13
12 13 15 17 18 18 18 18 18 18 18 18 18 18 16 14 13 12 11 11 11 10 9 8 7 6 5 3 5 7 6 6 8 11 13 14 16 17 18 19 20 21 21 22 23 23 24 24 25 26 26 27 27 29 30 31 32 33 34 34 34 34 33 32 31 30 29 28 27 26 26 25 23 22 21 20 19 18 17 16 16 15 15 15 16 18 19
13 14 15 16 17 17 16 17 17 16 15 15 16 16 15 13 12 10 9 8 8 8 7 6 5 4 2 4 6 7 7 7 9 10 12 13 14 15 16 18 19 20 20 20 20 21 22 22 23 24 24 25 27 28 29 30 30 31 32 33 33 34 34 33 33 32 31 30 29 28 28 27 26 25 24 23 22 21 19 18 18 17 17 18 19 20 21
13 14 14 15 15 15 15 15 15 14 13 14 15 14 13 12 10 9 7 7 6 6 4 3 2 0 3 6 6 6 7 8 9 10 12 13 14 15 16 17 18 19 19 20 20 20 21 21 22 23 23 24 26 27 28 29 30 30 31 31 31 31 32 32 32 32 32 31 31 30 30 29 28 28 27 26 24 22 21 20 20 20 20 19 19 19 18
12 13 14 14 14 14 14 14 13 13 13 14 14 13 12 11 9 8 6 5 3 2 1 1 2 3 5 6 5 5 6 7 8 9 11 12 13 14 16 16 17 18 19 19 19 20 20 21 21 22 23 24 25 26 26 27 28 28 29 29 29 29 29 29 29 29 29 30 30 30 30 29 28 27 26 25 24 22 21 20 20 20 19 18 18 17 17
12 13 14 14 15 14 13 13 12 12 13 13 12 10 10 9 8 6 5 3 1 1 3 3 5 6 5 4 4 4 5 6 7 8 9 11 12 13 14 15 16 17 17 18 19 20 20 21 21 22 22 23 23 24 24 25 25 26 26 27 27 27 28 28 28 28 28 28 27 27 27 27 25 25 24 23 22 21 20 19 18 18 17 17 16 16 16
13 13 14 14 14 13 12 11 10 9 10 10 9 8 8 7 6 4 2 2 3 4 5 5 6 6 5 4 3 4 4 5 7 8 9 10 11 12 14 14 15 16 17 17 18 19 19 20 20 21 21 22 22 22 22 23 23 23 24 24 24 24 25 26 26 26 26 25 25 25 25 25 24 23 23 22 21 20 19 18 17 17 17 17 16 16 16
Wind_Direction
260 263 268 268 270 272 272 275 275 276 278 269 261 262 268 270 265 268 280 281 278 278 268 182 139 206 254 348 5 2 4 7 14 15 12 9 7 5 6 5 5 4 3 2 2 360 359 356 354 352 351 349 348 347 345 345 344 344 344 344 345 345 344 345 344 343 342 341 340 340 339 338 338 338 336 332 324 311 297 289 289 291 289 286 281 276 273
263 260 265 269 270 276 275 265 264 267 262 260 262 267 270 266 261 269 276 273 272 270 205 161 154 152 180 233 275 276 292 331 5 9 3 1 359 356 356 356 356 356 356 356 355 355 355 354 352 351 348 345 344 342 341 340 340 340 341 340 340 341 341 341 341 340 339 338 338 338 336 335 334 335 335 336 334 326 312 297 290 291 291 287 282 278 273
259 250 252 258 253 266 276 275 272 267 263 265 269 270 271 269 268 268 265 264 268 255 139 153 152 141 159 219 260 262 264 293 349 358 355 353 350 347 348 348 348 349 349 349 348 348 349 348 347 346 344 342 340 338 337 336 335 336 336 336 337 337 338 338 338 337 337 336 337 338 337 335 333 331 332 333 335 335 328 313 298 292 291 288 284 281 276
258 251 258 271 284 284 278 274 268 264 262 263 261 258 258 259 264 268 265 267 268 159 128 157 162 161 199 234 259 268 262 266 307 343 347 346 343 342 342 341 341 342 342 341 342 341 341 341 340 340 338 337 336 336 335 334 333 332 331 331 332 333 334 336 337 336 335 334 335 336 336 335 334 332 331 330 331 333 335 330 314 298 291 290 289 284 279
269 266 274 316 349 290 270 258 254 255 257 259 258 256 256 254 258 266 267 266 243 143 136 175 191 191 213 234 259 276 269 257 266 323 338 338 336 335 335 334 334 334 334 334 334 334 335 335 333 333 332 331 331 332 333 332 331 330 329 329 328 328 330 332 334 335 335 333 332 333 334 333 332 332 331 331 331 330 332 333 328 313 300 294 292 288 282
269 274 322 13 279 262 264 251 233 244 252 256 258 260 261 257 245 239 225 151 140 152 161 192 223 225 231 251 272 285 277 254 248 294 325 330 330 329 329 329 328 327 327 327 327 327 328 327 327 326 325 323 323 324 326 327 327 328 327 327 327 327 327 329 331 333 334 333 332 331 331 331 330 330 329 329 330 330 329 329 330 325 314 302 294 290 286
270 294 330 285 266 258 279 318 241 256 256 244 254 263 246 186 127 116 121 139 161 179 193 214 238 248 256 269 274 282 280 254 243 279 315 324 327 327 326 325 323 322 322 321 321 321 321 321 320 320 319 317 317 317 319 320 321 323 323 323 324 325 325 327 329 330 332 332 332 331 331 330 328 328 327 326 326 327 326 325 326 326 322 313 302 294 289
272 297 239 255 275 303 295 282 277 298 87 124 175 264 220 178 154 141 149 174 189 198 212 230 244 252 265 275 273 277 274 244 233 265 307 321 326 325 324 322 319 318 316 315 315 315 315 315 315 315 314 313 312 312 313 314 315 317 318 318 320 321 321 323 325 326 328 329 329 330 331 330 328 327 326 325 325 324 323 321 321 322 323 320 311 300 292
240 252 240 261 313 312 276 265 241 181 164 158 174 252 226 186 168 146 151 191 218 222 240 255 259 262 282 287 281 282 260 220 222 260 297 314 323 323 323 322 319 317 314 311 311 310 310 311 311 311 310 309 309 309 309 310 311 312 312 314 316 316 316 318 320 322 324 324 325 326 328 328 328 327 325 324 324 323 320 318 318 318 319 318 314 305 295
218 231 260 279 291 280 261 251 246 207 170 176 158 96 237 186 177 164 150 216 242 235 251 262 257 266 313 283 281 288 251 209 225 269 293 308 318 320 321 322 320 319 315 311 310 310 309 310 312 311 309 308 307 307 306 308 308 309 310 312 313 312 312 314 316 318 320 320 320 321 322 324 324 324 324 323 322 321 319 317 315 315 315 314 313 309 301
232 233 252 249 259 271 209 193 232 219 187 177 120 3 313 159 189 207 195 222 245 232 240 249 225 188 284 246 276 293 270 224 241 275 291 302 312 315 317 318 317 316 313 310 309 309 308 310 311 310 308 307 307 307 306 307 306 306 308 310 310 308 308 310 312 314 316 316 316 317 317 318 320 320 321 321 321 320 318 315 313 312 312 311 311 310 305
236 240 248 244 259 273 175 185 202 177 159 123 75 307 287 169 205 224 209 217 240 238 239 241 196 179 226 242 279 297 287 254 260 279 288 295 304 309 313 314 314 312 310 308 307 306 306 307 308 307 305 305 305 305 306 306 305 305 306 307 307 306 306 307 307 308 310 311 311 313 313 314 315 316 317 318 318 318 317 315 312 310 309 308 307 307 306
234 237 245 253 254 242 200 193 175 151 125 88 235 267 230 183 212 239 230 227 240 244 237 229 211 230 250 263 280 291 288 273 274 282 286 291 298 304 307 310 311 310 308 306 305 305 306 306 305 304 303 302 302 303 304 303 303 305 306 305 304 303 304 304 304 305 305 305 306 307 309 310 311 311 313 314 315 315 314 314 311 308 306 306 304 303 303
242 242 249 272 279 238 192 184 164 146 124 179 216 241 308 226 229 248 246 239 248 253 246 242 245 257 269 275 279 284 285 280 281 285 287 289 293 298 302 305 307 306 305 305 304 304 305 305 304 303 302 301 301 302 302 301 302 304 304 302 302 302 302 302 302 302 302 302 302 303 304 305 306 307 308 309 311 311 311 311 309 307 304 302 302 301 299
236 252 242 256 276 212 167 161 145 143 164 218 277 309 312 293 282 283 265 255 263 265 261 264 269 274 279 281 281 285 288 286 285 286 286 287 289 294 298 301 304 305 305 304 304 304 303 302 302 302 302 301 301 301 300 300 302 302 301 300 300 300 300 300 300 300 301 300 300 300 300 302 303 303 304 305 306 308 308 308 307 305 303 300 299 298 297
209 225 222 217 229 209 170 161 206 259 261 285 300 302 297 298 302 299 285 280 284 281 278 281 283 283 283 284 287 290 290 289 287 284 284 286 289 293 297 300 302 304 305 305 304 303 302 301 302 302 302 301 300 299 299 300 301 299 298 298 298 298 299 299 298 298 299 298 298 298 298 298 299 299 300 301 303 304 305 305 304 303 302 298 295 294 294
188 209 245 251 256 270 264 257 269 280 287 293 295 291 288 293 297 296 289 288 293 294 291 287 287 286 286 287 290 289 288 286 284 282 284 287 290 294 298 300 302 304 305 305 304 302 302 302 302 302 300 298 297 298 299 299 298 297 297 296 296 296 297 297 297 297 296 296 296 296 296 296 296 296 296 297 299 299 301 301 300 299 299 296 291 289 289
260 253 260 266 274 277 277 279 281 283 288 291 290 289 288 290 294 294 289 288 293 298 296 289 285 285 287 288 287 285 283 282 282 283 287 290 294 299 301 303 306 307 306 304 302 302 302 302 302 301 298 297 296 296 297 297 296 296 295 295 294 294 294 294 294 295 294 294 293 293 293 293 293 293 293 293 294 295 296 297 297 295 294 292 288 284 282
271 267 264 264 267 270 274 281 283 282 283 284 286 288 288 291 294 294 290 289 292 295 295 290 286 286 287 283 280 280 280 282 284 288 292 297 301 304 305 307 307 306 304 302 301 300 301 301 301 299 297 296 295 295 296 296 295 294 294 293 293 292 292 292 292 292 293 293 293 292 291 291 291 291 290 290 290 290 291 292 292 291 289 287 284 280 278
247 255 265 267 267 270 272 274 276 278 281 284 287 289 289 290 291 289 288 290 292 293 294 289 285 286 285 281 282 285 287 289 292 296 301 305 306 306 307 307 305 303 301 300 299 299 299 299 299 297 296 295 295 295 295 295 294 294 293 292 292 292 291 291 291 292 292 293 293 292 291 290 289 289 288 288 287 286 286 287 286 286 284 282 280 278 276
253 256 264 269 272 273 270 269 271 275 280 284 288 290 287 284 283 284 287 292 294 295 294 289 286 287 287 289 294 297 296 297 301 304 306 308 307 306 306 305 303 302 301 300 300 299 298 298 297 296 295 294 294 295 295 294 294 294 292 292 292 292 291 292 292 292 293 292 292 292 291 290 289 287 286 287 285 283 283 283 281 280 280 278 278 276 273
262 258 257 259 262 268 267 271 276 280 282 285 286 284 282 279 281 285 289 292 295 295 293 293 292 292 294 299 304 303 302 304 306 307 308 307 306 306 306 305 304 303 302 301 300 299 297 297 297 296 295 294 294 295 296 295 295 294 293 293 293 292 292 292 292 293 293 292 291 291 291 290 290 288 285 283 281 279 279 279 278 276 275 275 276 274 270
258 265 267 262 253 255 269 276 281 282 282 282 280 278 278 280 283 289 293 295 298 300 300 301 302 302 304 308 309 307 307 308 309 309 308 307 307 307 307 306 305 304 303 303 302 300 300 299 298 297 296 296 296 298 298 299 298 296 296 296 294 292 293 294 295 295 294 293 294 293 292 292 293 291 289 287 284 281 279 278 277 275 272 270 270 268 264
258 265 270 270 265 265 272 277 280 280 278 277 276 276 279 283 286 290 294 297 301 304 305 308 311 311 311 311 310 309 310 310 311 310 309 308 308 307 307 307 306 306 306 305 304 303 302 301 300 299 299 299 301 303 304 304 303 301 300 298 295 295 296 297 297 297 296 296 296 296 296 298 298 294 291 290 288 285 281 278 276 274 270 265 263 260 257
253 260 267 270 270 271 274 275 275 275 275 275 275 277 280 283 288 293 296 299 303 304 306 309 312 312 311 310 310 310 310 311 311 311 309 309 308 308 309 310 310 310 310 309 309 309 308 307 307 306 306 307 309 310 309 309 307 303 301 298 296 296 297 298 298 296 295 294 293 293 297 300 295 285 279 277 278 278 273 268 267 268 266 261 258 256 255
254 259 265 268 269 270 272 271 270 271 272 272 274 276 281 286 292 296 298 302 306 308 308 309 311 312 311 310 311 311 310 311 311 310 309 310 311 313 315 316 317 317 316 315 315 315 314 313 312 310 310 311 312 311 310 309 306 302 300 298 296 295 296 296 294 292 288 286 285 286 289 287 279 273 272 272 274 277 276 275 275 275 270 263 256 253 253
258 259 261 264 268 270 268 265 265 266 267 270 275 282 288 293 296 297 300 304 307 308 309 310 311 311 311 312 312 312 311 311 311 311 313 315 317 319 322 324 325 324 322 320 320 319 317 315 314 312 311 311 311 311 309 307 305 302 300 298 296 295 294 293 290 287 285 283 282 282 282 281 278 277 277 276 276 277 278 279 279 277 274 269 261 255 252
259 257 254 252 259 266 268 265 265 266 270 277 283 288 290 292 293 296 300 303 305 306 308 310 310 311 312 314 315 314 313 313 314 316 318 321 323 326 330 331 330 329 326 323 322 322 320 318 315 312 311 312 312 311 310 308 305 302 300 298 296 294 293 291 289 287 285 285 284 283 283 284 284 283 282 281 279 278 277 276 272 271 272 272 269 266 260
254 254 253 251 255 262 266 267 269 274 279 283 286 288 290 292 293 297 301 304 306 308 309 310 311 313 315 316 316 315 316 317 318 320 322 325 329 333 336 336 333 330 328 325 325 325 324 321 318 315 315 317 317 316 314 311 308 304 302 299 297 295 294 294 293 291 290 289 288 288 287 287 285 282 278 274 272 270 270 270 269 270 272 270 267 266 264
253 254 254 254 256 260 264 268 273 277 278 280 283 286 290 294 297 300 305 307 308 308 309 310 312 315 316 317 317 318 319 320 321 322 325 329 334 338 340 338 334 330 328 328 330 330 329 326 324 321 322 324 324 321 319 316 313 310 307 304 302 300 299 298 296 293 292 290 288 286 284 281 278 274 271 270 269 266 264 263 265 268 271 269 265 263 263
255 255 256 257 258 261 264 268 272 274 274 279 284 287 291 295 298 301 305 306 307 309 311 313 315 317 318 319 319 320 320 320 322 325 329 334 338 340 340 338 333 330 331 333 335 335 333 330 327 327 327 328 327 325 323 321 318 315 313 311 309 307 305 302 298 293 290 287 284 281 279 277 276 276 275 276 278 274 268 264 263 263 263 264 264 262 261
258 258 259 260 259 260 263 263 266 270 273 279 285 290 295 299 300 302 305 308 310 311 312 314 316 318 319 320 320 320 321 323 325 330 334 336 337 339 339 337 335 334 336 338 338 338 335 332 330 330 331 329 328 327 326 325 322 320 318 317 315 313 310 308 304 299 294 289 284 280 278 278 278 278 276 275 276 277 274 270 265 262 259 258 260 262 261
253 251 253 255 254 254 257 260 266 272 275 281 290 294 297 300 301 304 307 309 310 310 311 314 317 319 320 320 320 321 324 326 330 335 336 335 336 338 339 339 339 340 342 343 344 342 338 333 331 331 332 331 329 329 330 329 327 325 324 322 319 317 315 312 309 304 300 295 290 288 284 281 278 275 271 269 269 269 270 271 270 267 263 260 261 264 264
251 250 254 256 256 259 263 266 272 278 282 287 291 292 295 299 302 305 307 307 308 310 313 316 318 318 319 319 320 323 328 330 333 335 335 335 338 340 341 342 344 345 347 350 350 345 340 337 335 334 334 333 332 332 333 333 332 330 328 326 323 320 319 318 315 311 307 304 303 301 296 291 287 284 280 277 273 268 267 268 269 268 265 264 266 267 266
251 252 256 258 260 265 270 275 281 285 286 288 289 292 298 303 305 307 308 308 310 313 316 316 316 316 318 319 322 325 331 334 334 333 333 337 341 341 341 345 349 349 350 353 353 349 344 342 341 339 337 336 336 336 337 336 335 334 333 331 327 325 324 323 320 317 314 312 310 306 301 298 296 293 288 284 281 279 276 273 271 267 265 266 268 268 266
249 250 254 257 259 264 271 277 284 286 288 292 296 301 305 307 308 309 310 310 312 313 313 312 314 315 317 320 323 327 333 336 334 331 336 343 344 341 344 351 354 353 353 354 355 352 349 348 348 346 343 341 341 343 343 343 341 340 338 336 333 331 330 328 325 322 319 316 313 310 307 305 302 296 288 280 277 276 275 275 273 269 265 265 267 266 264
251 252 256 259 263 269 274 279 284 288 291 295 299 302 305 307 308 308 308 308 309 311 311 312 314 315 316 319 323 327 334 337 332 333 343 348 344 342 349 357 358 356 355 355 354 353 353 353 354 353 351 350 350 349 350 350 348 345 343 342 339 338 337 334 331 328 325 321 317 313 310 306 301 297 294 289 284 278 273 272 273 271 267 267 267 262 260
255 260 266 268 271 276 280 283 286 290 293 296 299 302 305 307 306 305 304 306 309 310 311 312 313 313 315 319 322 328 336 337 333 339 351 351 343 346 357 3 1 358 357 354 353 355 356 356 357 358 358 357 356 355 355 355 353 350 349 348 347 345 344 340 337 334 332 330 327 321 316 312 307 304 303 301 297 292 285 278 274 269 266 265 261 253 250
256 264 271 274 278 283 286 288 291 293 296 299 302 304 306 305 304 303 304 307 309 310 310 311 311 312 314 318 323 330 337 338 340 348 355 350 345 353 5 8 4 359 357 355 356 358 359 359 1 3 3 2 1 0 360 358 354 353 356 357 355 353 351 347 343 340 338 337 334 330 326 323 318 315 312 308 302 296 287 276 269 265 261 257 250 243 239
260 269 277 283 289 293 295 296 298 300 302 303 305 306 307 306 305 304 306 308 310 310 310 309 309 310 313 318 325 331 337 343 351 356 355 352 352 360 7 10 6 1 359 358 360 1 2 3 5 6 7 7 6 4 3 1 359 0 5 6 4 2 0 357 355 354 353 351 349 345 342 339 333 325 321 315 305 295 283 272 265 260 255 249 240 232 228
272 279 285 292 296 298 301 303 305 306 307 308 307 308 308 307 305 305 307 308 310 310 308 306 305 307 312 319 324 329 337 349 358 359 359 360 2 4 6 7 5 2 1 1 2 3 5 8 9 10 10 11 10 9 9 9 9 10 12 14 13 12 10 9 9 9 8 6 5 4 2 0 356 353 350 344 332 317 295 279 265 250 244 239 229 222 220
287 292 297 301 304 306 309 310 310 311 311 311 310 309 308 307 306 305 306 307 307 306 303 301 301 305 312 318 320 326 340 355 1 2 6 11 11 7 5 5 3 1 1 3 4 5 7 10 13 14 14 14 16 17 19 21 21 20 20 21 22 22 21 20 21 21 21 20 20 20 19 17 16 17 18 17 17 20 16 346 290 232 223 220 212 208 207
300 304 306 309 312 314 315 314 313 311 310 311 311 310 309 309 307 305 304 304 303 301 299 300 303 306 310 312 316 329 350 1 2 2 11 22 21 12 5 3 2 1 2 3 5 7 9 11 15 17 18 19 21 25 29 32 32 31 30 29 29 29 29 29 29 29 29 30 31 30 29 29 29 30 31 33 35 37 37 36 50 121 176 187 186 185 187
311 314 316 317 318 318 316 314 312 311 311 312 313 313 312 311 308 305 302 300 297 296 298 301 304 306 305 305 317 346 4 4 360 1 9 21 25 18 10 5 3 4 5 5 7 9 10 12 15 18 21 24 27 31 35 38 39 39 39 38 36 36 36 35 34 33 32 33 35 36 36 36 36 36 37 40 42 44 47 53 64 83 103 124 142 151 154
323 323 321 319 318 317 316 314 314 314 314 313 313 313 314 311 305 301 298 295 294 296 299 299 297 298 297 300 332 15 17 4 2 7 10 12 13 13 10 6 5 5 6 7 9 11 13 14 16 18 21 26 30 34 38 41 43 45 46 45 44 43 42 41 39 38 37 36 36 38 40 42 44 45 46 48 49 51 54 59 66 76 86 96 109 118 122
327 324 320 318 318 319 319 317 315 315 313 311 311 313 313 309 304 301 298 295 294 295 292 286 284 286 289 303 15 46 42 19 11 15 16 12 7 4 3 2 4 5 7 8 10 13 15 16 18 20 22 26 31 35 39 42 44 47 49 50 50 49 48 47 46 45 44 42 42 41 42 44 47 49 51 54 56 59 61 65 70 78 86 94 100 105 111
325 325 325 325 325 324 321 317 314 312 310 308 310 313 314 313 310 306 300 296 291 285 277 274 274 275 284 339 36 49 52 42 26 19 17 14 7 360 357 360 4 7 9 9 10 12 15 18 21 22 24 27 31 36 39 42 44 45 47 49 51 52 53 53 53 53 53 52 51 50 49 49 50 51 53 57 60 63 67 73 78 85 93 100 106 111 116
335 336 337 334 329 326 322 317 313 312 311 310 311 315 319 320 317 310 302 294 284 275 270 270 268 268 316 39 41 35 33 33 26 18 14 12 5 359 360 3 6 8 10 11 11 13 16 19 22 24 27 29 32 35 38 40 43 45 46 47 49 51 52 54 55 57 58 59 60 60 59 59 58 57 58 59 61 65 69 75 81 88 95 102 109 115 119
344 344 343 339 332 328 324 321 318 318 318 316 316 320 323 322 318 312 303 290 279 271 269 264 259 307 52 51 44 32 24 22 16 11 8 6 2 1 3 6 7 8 10 12 14 16 18 19 20 24 27 30 33 36 38 39 41 43 45 46 48 49 51 52 54 56 59 60 62 63 65 66 66 65 65 65 66 68 73 77 83 88 92 96 101 106 112
354 353 350 346 342 337 332 328 325 323 321 319 320 322 323 321 318 314 306 293 285 276 239 171 108 75 61 51 41 33 24 14 7 5 4 2 1 3 6 7 9 10 11 13 15 17 19 20 22 24 26 28 31 34 36 38 40 43 45 46 48 50 51 52 54 56 58 60 61 63 65 66 68 69 70 71 71 74 77 81 86 89 92 94 97 102 109
2 2 360 357 354 349 339 330 323 317 315 316 319 321 321 319 318 316 314 323 6 110 135 122 94 78 69 56 41 31 22 10 5 3 3 3 5 7 9 10 12 12 13 14 16 18 19 21 22 24 25 27 29 30 32 34 37 40 42 45 47 49 51 52 53 54 55 57 59 61 63 66 68 70 73 75 77 79 82 86 89 91 93 96 99 105 111
6 8 9 8 6 1 350 335 322 317 318 320 323 323 323 322 322 325 343 45 98 122 127 110 89 78 72 61 42 28 18 10 8 7 8 9 11 12 12 14 15 16 16 18 18 19 20 22 22 23 25 26 28 29 31 32 33 35 38 40 43 46 49 51 53 54 55 57 58 60 62 64 67 69 71 73 76 80 83 86 90 93 96 100 103 108 112